DC3YC-13 Weather Reports


time (UTC)temp
F
wind
direction
speed
knots
gust
knots
rain 1hr
in
rain 24hr
in
rain mn
in
humidity
%
barometer
mb
20260507014633 50 310 0.0 0.0 0.00 0.17 0.00 99 1007.2
20260507013633 50 315 0.0 0.0 0.00 0.17 0.00 99 1007.2
20260507012633 50 315 0.0 0.0 0.00 0.17 0.00 99 1007.2
20260507011633 50 320 0.9 0.0 0.00 0.17 0.00 99 1007.2
20260507010633 50 310 0.9 0.0 0.00 0.17 0.00 100 1007.2
20260507005634 50 310 4.3 0.0 0.00 0.17 0.00 100 1007.2
20260507004633 50 310 0.9 0.0 0.00 0.17 0.00 100 1007.2
20260507003633 50 320 0.9 0.0 0.00 0.17 0.00 100 1007.2
20260507002633 50 320 0.9 0.0 0.00 0.17 0.00 100 1007.2
20260507001633 50 320 0.9 0.0 0.00 0.17 0.00 100 1007.2
20260507000633 52 320 1.7 0.0 0.00 0.17 0.00 100 1007.2
20260506235633 52 320 6.1 0.0 0.00 0.17 0.00 100 1007.2
20260506234633 52 315 0.9 0.0 0.00 0.17 0.00 100 1007.0
20260506233633 52 315 0.0 0.0 0.00 0.17 0.00 100 1007.0
20260506232633 52 315 3.5 0.0 0.00 0.17 0.00 100 1007.0
20260506231633 52 315 0.0 0.0 0.00 0.17 0.00 100 1007.0
20260506230633 52 315 0.0 0.0 0.00 0.17 0.00 100 1007.0
20260506225633 52 320 0.0 0.0 0.00 0.17 0.00 100 1007.0
20260506224633 52 320 0.0 0.0 0.00 0.17 0.00 100 1007.0
20260506223633 52 310 0.0 0.0 0.00 0.17 0.00 100 1007.0
20260506222633 52 320 0.9 0.0 0.00 0.17 0.00 100 1007.0
20260506221633 52 310 0.0 0.0 0.00 0.17 0.00 100 1007.0
20260506220633 52 310 0.0 0.0 0.00 0.17 0.00 100 1007.0
20260506215633 52 315 0.0 0.0 0.00 0.17 0.14 100 1007.0
20260506214633 52 320 0.9 0.0 0.00 0.17 0.14 100 1007.0
20260506213633 52 320 0.0 0.0 0.00 0.17 0.14 100 1007.0
20260506212633 52 325 0.0 0.0 0.00 0.17 0.14 100 1006.0
20260506211633 52 320 3.5 0.0 0.00 0.17 0.14 100 1006.0
20260506210633 52 320 0.9 0.0 0.00 0.17 0.14 100 1006.0
20260506205633 52 320 3.5 0.0 0.00 0.17 0.14 100 1006.0
20260506204633 54 315 2.6 0.0 0.00 0.17 0.14 100 1006.0
20260506203633 54 325 0.9 0.0 0.00 0.17 0.14 100 1006.0
20260506202633 54 330 0.9 0.0 0.01 0.17 0.14 100 1006.0
20260506201633 54 330 0.9 0.0 0.01 0.17 0.14 100 1006.0
20260506200633 54 330 0.9 0.0 0.01 0.17 0.14 100 1006.0
20260506195633 54 320 0.0 0.0 0.01 0.17 0.14 100 1006.0
20260506194633 54 320 0.0 0.0 0.01 0.17 0.14 100 1004.9
20260506193633 54 320 0.0 0.0 0.01 0.17 0.14 100 1006.0
20260506192633 54 320 0.0 0.0 0.10 0.17 0.14 100 1006.0
20260506191633 54 320 0.0 0.0 0.10 0.17 0.14 100 1004.9
20260506190633 54 320 0.0 0.0 0.10 0.17 0.14 100 1006.0
20260506185633 54 320 1.7 0.0 0.10 0.17 0.13 99 1006.0
20260506184633 54 335 0.0 0.0 0.10 0.17 0.13 99 1004.9
20260506183633 54 335 0.9 0.0 0.10 0.17 0.13 99 1004.9
20260506182633 54 335 1.7 0.0 0.00 0.17 0.13 99 1004.9
20260506181633 54 340 3.5 0.0 0.00 0.17 0.13 98 1004.9
20260506180633 55 340 5.2 0.0 0.00 0.17 0.09 97 1003.9
20260506175633 55 340 3.5 0.0 0.00 0.17 0.03 95 1003.9
20260506174633 55 340 0.9 0.0 0.00 0.17 0.03 94 1003.9
20260506173633 55 345 3.5 0.0 0.00 0.17 0.03 94 1003.9
20260506172633 57 345 0.0 0.0 0.01 0.17 0.03 94 1002.9
20260506171633 57 345 0.9 0.0 0.01 0.17 0.03 93 1002.9
20260506170633 57 350 3.5 0.0 0.01 0.17 0.03 93 1002.9
20260506165633 57 345 1.7 0.0 0.01 0.17 0.03 92 1002.9
20260506164633 57 345 0.9 0.0 0.01 0.17 0.03 91 1002.9
20260506163633 59 345 3.5 0.0 0.01 0.17 0.03 92 1002.9
20260506162633 59 345 0.0 0.0 0.01 0.17 0.03 94 1002.9
20260506161633 59 345 0.0 0.0 0.01 0.17 0.01 93 1002.9
20260506160633 59 350 0.0 0.0 0.01 0.17 0.01 92 1002.9
20260506155633 59 350 0.0 0.0 0.01 0.17 0.01 92 1002.9
20260506154633 59 350 0.0 0.0 0.01 0.17 0.01 92 1002.9
20260506153633 61 350 1.7 0.0 0.01 0.17 0.01 92 1002.9
20260506152633 59 350 0.0 0.0 0.00 0.17 0.00 90 1002.9
20260506151633 61 350 0.0 0.0 0.00 0.17 0.00 90 1002.9
20260506150633 59 355 0.0 0.0 0.00 0.17 0.00 89 1002.9
20260506145633 61 355 0.0 0.0 0.00 0.17 0.00 87 1002.9
20260506144633 61 355 0.0 0.0 0.00 0.17 0.00 85 1002.9
20260506143633 63 355 0.9 0.0 0.00 0.17 0.00 74 1002.9
20260506142633 64 355 4.3 0.0 0.00 0.17 0.00 68 1002.9
20260506141633 66 355 6.1 0.0 0.00 0.17 0.00 66 1002.9
20260506140633 66 355 0.0 0.0 0.00 0.17 0.00 66 1003.0
20260506135633 66 355 0.0 0.0 0.00 0.17 0.00 60 1003.0
20260506134633 66 355 0.0 0.0 0.00 0.17 0.00 61 1003.0
20260506133633 68 355 0.0 0.0 0.00 0.17 0.00 62 1003.0
20260506132633 66 355 0.0 0.0 0.00 0.17 0.00 63 1003.0
20260506131633 68 355 2.6 0.0 0.00 0.17 0.00 59 1003.0
20260506130633 68 355 6.1 0.0 0.00 0.17 0.00 59 1003.0
20260506125633 68 355 0.0 0.0 0.00 0.17 0.00 56 1003.0
20260506124633 68 355 0.0 0.0 0.00 0.17 0.00 57 1003.0
20260506123633 68 355 3.5 0.0 0.00 0.17 0.00 55 1004.0
20260506122633 70 355 1.7 0.0 0.00 0.17 0.00 53 1004.0
20260506121633 70 355 5.2 0.0 0.00 0.17 0.00 55 1004.0
20260506120633 72 355 0.9 0.0 0.00 0.17 0.00 49 1004.0
20260506115633 72 0 0.9 0.0 0.00 0.17 0.00 56 1004.0
20260506114633 68 355 2.6 0.0 0.00 0.17 0.00 57 1004.0
20260506113633 70 355 6.1 0.0 0.00 0.17 0.00 57 1004.0
20260506112633 70 355 5.2 0.0 0.00 0.17 0.00 58 1004.0
20260506111633 72 355 5.2 0.0 0.00 0.17 0.00 56 1004.0
20260506110633 68 355 3.5 0.0 0.00 0.17 0.00 59 1004.0
20260506105633 66 355 0.0 0.0 0.00 0.17 0.00 65 1004.0
20260506104634 66 355 4.3 0.0 0.00 0.17 0.00 64 1004.0
20260506103633 66 355 0.9 0.0 0.00 0.17 0.00 66 1005.1
20260506102633 64 355 5.2 0.0 0.00 0.17 0.00 70 1005.1
20260506101633 64 355 4.3 0.0 0.00 0.17 0.00 73 1005.1
20260506100633 64 355 2.6 0.0 0.00 0.17 0.00 74 1005.1
20260506095633 64 355 0.9 0.0 0.00 0.17 0.00 74 1005.1
20260506094633 64 355 3.5 0.0 0.00 0.17 0.00 76 1005.1
20260506093633 64 355 0.0 0.0 0.00 0.17 0.00 76 1005.1
20260506092633 63 350 3.5 0.0 0.00 0.17 0.00 77 1005.1
20260506091633 63 355 5.2 0.0 0.00 0.17 0.00 82 1005.1
20260506090633 63 355 0.0 0.0 0.00 0.17 0.00 83 1005.1
20260506085633 61 355 0.9 0.0 0.00 0.17 0.00 83 1005.1
20260506084633 61 355 0.9 0.0 0.00 0.17 0.00 84 1005.1
20260506083633 59 355 3.5 0.0 0.00 0.17 0.00 86 1005.1
20260506082633 59 355 3.5 0.0 0.00 0.17 0.00 87 1005.1
20260506081633 59 355 3.5 0.0 0.00 0.17 0.00 89 1005.1
20260506080633 59 355 3.5 0.0 0.00 0.17 0.00 92 1005.1
20260506072633 55 355 3.5 0.0 0.00 0.17 0.00 98 1005.1
20260506071633 55 350 1.7 0.0 0.00 0.17 0.00 99 1005.1
20260506070633 54 350 5.2 0.0 0.00 0.17 0.00 100 1005.1
20260506061633 52 345 3.5 0.0 0.00 0.17 0.00 100 1005.1
20260506060633 52 345 0.9 0.0 0.00 0.17 0.00 100 1005.1
20260506050633 48 315 0.0 0.0 0.00 0.17 0.00 100 1005.1
20260506044633 48 315 0.0 0.0 0.00 0.17 0.00 100 1005.1
20260506043633 48 315 0.0 0.0 0.00 0.17 0.00 100 1005.1
20260506042633 48 320 0.0 0.0 0.00 0.17 0.00 100 1005.1
20260506041633 46 320 0.0 0.0 0.00 0.17 0.00 100 1005.1
20260506040633 46 320 0.0 0.0 0.00 0.17 0.00 100 1005.1
20260506035633 46 320 0.0 0.0 0.00 0.00 0.00 100 1005.1
20260506034633 46 320 0.0 0.0 0.00 0.00 0.00 100 1005.1
20260506033633 46 320 0.0 0.0 0.00 0.00 0.00 100 1005.1
20260506032633 48 325 0.0 0.0 0.00 0.00 0.00 100 1005.1
20260506031633 48 325 0.0 0.0 0.00 0.00 0.00 100 1005.1
20260506030633 48 320 0.0 0.0 0.00 0.00 0.00 100 1005.1
20260506025633 48 320 0.0 0.0 0.00 0.00 0.00 100 1005.1
20260506024633 48 325 0.0 0.0 0.00 0.00 0.00 100 1005.1
20260506023633 48 325 0.0 0.0 0.00 0.00 0.00 100 1005.1
20260506022633 48 330 0.0 0.0 0.00 0.00 0.00 100 1006.1
20260506021633 48 330 0.0 0.0 0.00 0.00 0.00 100 1005.1
20260506020633 48 330 0.0 0.0 0.00 0.00 0.00 100 1005.1
20260506015633 50 330 0.0 0.0 0.00 0.00 0.00 100 1004.9